Voltar ao catálogo

STARLINK-36718

AtivoComunicaçõesSSO
NORAD 67715·PAYLOAD·🇺🇸 United States

Lançado Feb 7, 2026 de Vandenberg Space Force Base

Loading…

Próximas Passagens (próximas 24 horas)

TLE

AtualizadoSource: CelesTrak SupGP

Época: Sep 15, 2026, 03:40 UTC

1 67715C 26025Y   26258.15326389 -.00021917  00000+0 -68031-3 0  2581
2 67715  97.2851   8.1359 0000882  86.1661  15.8756 15.33453532    19

Acompanhe STARLINK-36718 em tempo real com AllMySat

Download on the App Store